THOR ABLESTAR DEB, 645

Orbit data source: Space-Track

THOR ABLESTAR DEB, 645 is space debris in LEO originally from a launch on Thu, 29 Jun 1961 UTC launched from the Air Force Eastern Test Range (AFETR). Debris objects in space refer to the collection of defunct objects orbiting the Earth. Examples of debris include non-operational satellites, rocket bodies, and fragments generated from explosions, collisions, or faulty payload assembly.

Loading next visibility...
Identifier
645, 1961-015GW
Orbit
LEO
Country
Flag of USUS
Related business
Manufacturer
Unknown
Mission
Spacecraft
Bus & Motor
Unknown
Mass
Unknown
Launch date (UTC)
1961-06-29 (64 years ago)
Launch vehicle
Unknown
Launch site
Air Force Eastern Test Range (AFETR)
Object type
Payload
Rocket body
Debris
Shape & HBR
Unknown shape, 0.1 m
Radar Cross Section
Small (<0.1 m²)

Expand to show TLE details & history
Last TLE update: 18 hours ago

TLE from 18 hours ago
0 THOR ABLESTAR DEB
1 00645U 61015GW  25340.95576875  .00000017  00000-0  16354-3 0  9994
2 00645  66.5869 272.9890 0415795 240.0756 203.0723 13.04782196 54736
Epoch: 2025-12-06T22:56Z
TLE epoch observation values (Epoch: 2025-12-06T22:56:18.420Z)
Latitude
65.23235°
Longitude
-77.99904°
Altitude
1,547.319 km
Speed
6.961 km/s
True Right ascension
22h 48m 12s
True Declination
65° 06' 52"
Sunlit
Object was in daylight at epoch
Visualization orbit readout
Latitude
Unknown
Longitude
Unknown
Altitude
Unknown
Speed
Unknown
Apparent Right ascension
Unknown
Apparent Declination
Unknown
Sunlit
N/A
Visualization observer readout
Local Sidereal Time
15:01:51
Azimuth
Unknown
Elevation
Unknown
Doppler factor
Unknown
Orbital elements
Apogee altitude
1,558.728 km
Perigee altitude
925.054 km
Semi-major axis
7,620.028 km
Eccentricity
0.04158
Inclination
66.5869°
RAAN
272.989°
Arg. of periapsis
240.0756°
True anomaly
201.29071°
Mean anomaly
203.0723°
Eccentric anomaly
202.17319°
Mean motion
3.26293 °/min
Orbital period
110.33 mins
BSTAR
0.00016354
Loading maneuver chart data...
Computing Atmospheric mass density...
Loading historical data...
Loading historical data...
Loading historical data...
Loading historical data...
Loading historical data...
Loading historical data...
Loading historical data...

Documentation

Showing up to 5 results
|